Notices

What's New in latest Release from April 7th, 2021:

- Updated Glossary, including Speed of Maximum Gust, and Total Hourly Precipitation

- Updated national and regional climate services offices contacts and prices information

- Addition of station inventory lists for 1981-2010, 1971-2000, and 1961-1990 Normals.

If you haven't already, please take our survey and provide feedback about our website: https://eccc.sondage-survey.ca/f/LanguageSelection.aspx?s=442ca660-fcf1-47c0-95a9-59707d6fd709

Hourly Data Report for March 18, 2010

HALIFAX STANFIELD INT'L A
NOVA SCOTIA

44°52'48.060" N
63°30'00.050" W
145.40 m
8202250
71395
YHZ

Download Data

Hourly Data (March 2010)
Hourly Data Report for March 18, 2010
TIME
LST
Temp Definition
°C
Dew Point Definition
°C
Rel Hum Definition
%
Precip. Amount Definition
mm

Wind Dir Definition
10's deg

Wind Spd Definition
km/h
Visibility Definition
km
Stn Press Definition
kPa
Hmdx Definition


Wind Chill Definition


Weather Definition


00:00 3.8 -6.4 47   25 22 24.1 98.55     Mainly Clear
01:00 2.1 -6.2 54   23 19 24.1 98.51     Mainly Clear
02:00 1.8 -5.3 59   23 17 24.1 98.47     Cloudy
03:00 2.0 -4.7 61   23 15 24.1 98.40     Cloudy
04:00 1.5 -4.4 65   22 19 24.1 98.34     Cloudy
05:00 1.6 -3.6 68   23 19 24.1 98.32     Mostly Cloudy
06:00 1.4 -3.0 72   23 19 24.1 98.31     Cloudy
07:00 2.5 -2.5 70   24 17 24.1 98.30     Mostly Cloudy
08:00 4.1 -1.9 65   24 19 24.1 98.31     Mostly Cloudy
09:00 7.3 -1.3 54   26 15 24.1 98.28     Mostly Cloudy
10:00 8.4 -0.8 52   26 19 24.1 98.27     Cloudy
11:00 11.3 1.0 49   28 26 24.1 98.19     Cloudy
12:00 11.5 0.8 48   28 28 24.1 98.14     Cloudy
13:00 11.8 0.0 44   28 28 24.1 98.12     Cloudy
14:00 11.2 -0.2 45   31 26 24.1 98.13     Cloudy
15:00 11.1 -0.6 44   31 11 24.1 98.18     Mostly Cloudy
16:00 11.6 -0.3 44   31 22 24.1 98.26     Mostly Cloudy
17:00 9.1 -1.5 47   30 30 24.1 98.33     Mostly Cloudy
18:00 7.7 -1.5 52   29 13 24.1 98.44     Mostly Cloudy
19:00 5.8 -2.2 56   29 15 24.1 98.52     Mainly Clear
20:00 4.0 -2.8 61   5 6 24.1 98.67     Mainly Clear
21:00 3.1 -3.3 63   9 4 24.1 98.78     Mainly Clear
22:00 2.0 -3.8 65   8 7 24.1 98.86     Mainly Clear
23:00 2.3 -4.7 60   8 6 24.1 98.91     Mainly Clear

Notes on Data Quality.

Legend

  • E = Estimated
  • M = Missing
  • NA = Not Available*
  • [empty] = Indicates an unobserved value
Date modified: